Theta_e
318 318 318 318 318 318 317 318 318 316 315 309 305 309 301 299 294 302 306 309 306 298 291 292 292 291 294 296 296 296 295 293 294 295 294 292 294 291 291 291 289 289 290 287 286 287 286 285 284 284 285 287 288 286 287 286 285 283 280 281 281 289 277 274 280 280 280 279 278 280 281 281 279 279 279 279 278 280 279 279 278 274 273 270 271 269 273
318 318 318 318 318 318 317 317 318 315 313 309 308 304 299 299 298 298 306 308 305 296 287 287 290 292 292 294 294 296 296 295 292 293 293 293 290 292 289 290 293 290 289 288 287 287 285 287 288 286 285 285 283 283 286 287 284 287 284 284 285 278 279 277 272 274 279 277 274 276 279 279 276 276 279 280 281 280 279 278 276 271 275 274 272 268 274
317 316 317 317 317 318 317 317 317 315 314 312 309 301 301 299 301 300 301 305 302 292 294 289 290 291 291 291 291 292 294 296 297 295 293 293 289 289 289 293 289 289 288 288 288 288 290 287 286 287 283 286 283 282 286 285 285 285 284 289 287 283 279 278 274 274 273 274 276 279 273 275 277 278 278 280 278 278 275 273 274 271 274 275 272 272 278
317 317 316 317 317 316 316 315 315 314 314 312 309 304 299 295 288 296 295 299 298 296 297 293 290 285 288 289 291 293 291 293 296 298 295 295 291 293 290 290 291 288 287 287 287 287 289 288 284 283 284 280 280 281 280 283 282 286 290 287 286 278 279 281 282 281 280 282 284 280 280 276 274 276 277 277 279 279 279 277 273 271 274 274 275 276 276
318 317 317 317 316 316 316 315 315 314 313 312 309 304 298 295 288 290 286 296 294 292 296 293 291 288 292 286 288 288 291 292 292 297 292 294 293 291 292 289 287 285 287 287 287 289 288 287 287 284 280 278 278 280 280 281 284 289 286 286 280 276 277 280 281 284 285 286 286 283 281 280 282 279 277 277 278 278 276 275 273 277 272 271 278 278 276
319 318 317 317 316 316 316 315 315 314 313 312 310 299 300 291 292 295 296 291 286 288 289 293 292 293 292 289 291 287 288 289 288 292 296 294 294 292 290 291 293 290 289 288 286 288 286 286 285 287 288 283 279 279 281 279 284 285 281 283 282 278 278 282 281 280 283 284 284 284 282 281 280 280 279 277 277 277 275 276 278 278 274 273 279 279 276
319 318 318 317 316 316 316 315 315 314 312 312 307 298 300 297 293 291 298 288 290 292 293 294 292 290 292 290 291 288 288 287 291 290 288 293 290 294 288 290 291 291 291 290 288 288 282 282 287 287 287 287 281 276 278 280 280 280 279 281 280 279 278 282 282 281 281 282 282 282 281 281 281 280 279 279 278 277 277 277 278 277 276 278 278 278 277
318 318 318 317 317 316 316 315 315 314 313 312 305 302 297 293 292 286 295 292 289 291 293 293 292 289 291 287 288 289 288 288 291 290 292 288 290 294 291 292 291 292 292 291 288 289 290 289 286 288 288 284 284 280 284 278 277 278 278 279 280 282 278 283 280 278 279 281 282 281 280 279 277 279 280 279 279 278 278 277 277 277 276 277 277 276 276
318 318 318 317 317 317 316 315 315 313 313 305 303 302 303 301 301 299 292 288 288 290 291 291 291 289 289 288 289 290 290 289 292 293 297 294 290 291 291 293 293 292 292 291 290 293 291 291 291 290 289 287 287 286 282 282 277 278 277 279 277 281 277 277 277 275 277 280 279 279 279 278 277 276 277 277 277 275 277 275 277 276 274 276 275 273 274
318 317 317 317 317 317 316 315 315 313 312 307 305 300 306 302 301 301 296 290 293 289 291 290 290 285 290 290 290 290 290 293 294 290 296 297 296 294 294 294 293 290 289 289 291 294 294 294 293 291 290 288 286 291 287 286 282 278 278 281 278 280 277 276 276 273 276 276 277 275 275 275 273 275 277 277 278 279 279 279 279 278 278 275 273 274 280
317 317 317 317 317 316 316 315 314 313 311 306 304 303 304 300 298 297 296 289 290 292 291 289 289 289 291 292 290 293 292 293 294 289 288 295 295 298 296 293 291 290 290 293 293 292 289 286 284 284 283 282 282 281 284 285 285 281 279 279 279 280 279 277 280 273 272 272 274 274 272 269 275 281 282 280 277 278 276 277 278 279 279 278 280 280 281
314 316 317 317 317 316 316 316 315 313 312 311 310 306 307 306 303 299 294 288 288 292 291 288 290 290 290 291 292 290 291 291 293 296 291 293 295 297 297 295 292 289 289 286 287 287 287 288 286 285 283 282 282 281 282 283 283 285 284 281 279 279 279 277 279 273 270 272 273 271 268 273 279 275 279 280 281 280 279 279 280 280 280 280 279 280 280
314 314 315 316 317 317 316 316 315 314 312 313 311 306 309 309 303 299 296 291 288 290 287 289 293 292 292 292 291 291 292 293 295 295 296 293 290 291 296 295 293 294 287 288 288 290 287 283 282 282 281 281 281 281 280 280 282 283 282 285 282 279 278 278 276 273 273 268 270 266 271 280 281 277 278 280 278 279 278 276 279 280 280 280 279 280 281
313 314 314 315 315 316 316 316 315 315 313 313 310 310 310 308 303 300 297 292 289 293 292 290 291 291 292 292 292 292 293 292 293 294 293 295 293 293 293 292 293 291 289 291 289 288 284 284 282 283 282 280 280 280 281 280 282 283 282 283 285 283 281 278 274 278 270 272 270 274 279 278 281 281 276 277 276 275 275 272 277 279 280 280 279 279 280
311 311 312 313 314 315 316 316 315 315 314 312 312 311 310 309 307 303 301 298 290 293 294 288 290 291 291 291 293 291 291 292 290 290 293 293 293 290 290 285 286 290 292 291 285 287 285 280 275 279 276 278 277 279 279 274 279 283 284 284 284 284 279 280 275 273 276 271 271 271 272 269 276 277 278 280 280 279 278 275 275 279 279 281 280 279 279
309 310 311 311 312 313 314 315 315 314 314 313 311 311 311 311 309 307 303 298 294 288 292 297 297 295 292 292 293 291 290 290 290 290 289 290 290 284 284 284 286 291 291 288 287 285 283 282 280 281 278 280 281 276 276 275 274 279 282 283 282 282 282 281 279 275 273 271 269 270 269 274 278 275 278 278 278 278 276 271 271 276 278 279 279 278 278
308 308 309 310 311 311 312 313 314 315 314 313 310 310 309 313 309 305 302 300 297 291 299 300 299 298 294 291 292 292 293 290 290 287 287 289 288 282 281 285 285 287 289 288 285 284 282 283 285 284 284 284 278 278 277 274 272 273 278 280 279 278 277 277 273 274 274 272 271 269 274 274 275 275 277 277 278 279 275 269 269 274 275 277 278 278 276
306 307 308 308 309 310 311 311 312 313 314 315 312 308 308 313 312 309 304 300 296 294 300 302 299 295 294 295 293 291 291 290 291 291 291 285 280 282 282 285 285 287 288 287 286 285 284 283 281 281 281 282 281 281 276 277 271 272 271 274 272 274 273 276 271 274 274 275 271 274 274 280 277 277 277 277 279 277 268 269 275 276 276 276 278 277 276
304 305 306 307 308 309 309 310 311 311 312 313 313 311 309 312 313 311 305 301 298 292 300 303 304 300 301 302 297 295 294 296 294 290 284 285 284 284 285 285 288 284 287 284 286 284 283 283 286 284 283 279 280 277 280 276 276 275 275 272 272 273 273 273 275 271 272 273 271 271 274 280 278 278 278 279 277 268 271 277 277 277 276 276 278 276 276
303 303 304 305 306 308 308 309 309 310 311 312 311 307 310 312 312 311 305 299 299 297 299 300 301 299 302 299 295 294 291 293 294 293 289 288 285 287 286 283 286 285 284 286 282 286 283 282 284 284 281 280 279 282 278 279 279 274 275 278 274 274 270 269 272 274 273 273 269 268 267 278 280 278 276 280 275 277 279 277 277 277 277 277 276 277 277
301 302 303 304 305 305 306 308 308 309 309 310 309 306 305 312 312 312 312 307 301 296 297 303 302 302 303 302 303 302 298 295 294 293 294 292 287 288 280 284 285 284 282 284 279 282 284 282 284 281 283 283 280 280 276 278 276 281 278 278 277 280 271 271 274 277 267 271 267 269 277 279 280 279 275 277 282 280 278 279 277 277 277 277 277 277 277
301 302 302 303 303 305 305 306 307 308 308 309 309 306 301 306 311 312 312 310 303 298 296 293 294 301 305 307 307 306 305 303 303 302 295 285 288 292 290 287 286 286 286 285 282 280 283 282 281 278 278 279 282 280 281 275 275 278 280 281 274 282 278 280 275 279 274 274 277 280 278 280 281 281 281 281 281 279 280 279 279 278 277 277 278 277 277
300 301 302 302 302 303 304 304 305 306 307 308 307 303 300 304 307 311 310 304 304 302 288 288 289 289 294 297 302 307 307 306 307 305 299 291 286 289 287 287 286 288 287 288 288 288 287 284 282 284 280 282 280 279 281 281 280 277 274 282 283 282 284 281 280 279 283 282 282 279 278 279 280 282 280 280 280 279 279 279 278 279 279 279 278 279 278
300 300 301 301 302 302 302 303 304 305 305 306 305 302 301 304 306 306 305 304 300 297 298 292 295 296 296 296 301 295 297 299 304 307 306 301 289 286 287 287 288 285 284 288 290 287 285 284 282 284 281 283 283 279 278 276 280 281 277 277 282 282 281 281 280 281 279 276 284 280 279 279 280 281 280 279 281 280 279 279 280 279 279 279 279 279 279
298 299 299 300 301 301 302 302 303 304 304 305 304 304 304 302 304 305 300 294 293 294 291 287 292 300 304 304 302 294 299 305 306 306 303 302 300 292 288 292 291 290 289 288 287 286 285 280 280 281 280 286 285 278 286 282 280 282 276 280 279 277 284 279 280 280 279 281 279 281 281 281 281 281 280 279 279 279 280 280 279 279 280 280 279 278 277
298 298 298 299 299 300 301 301 302 303 303 304 303 300 299 299 304 306 303 301 299 291 289 290 292 290 289 295 295 300 302 301 302 304 304 303 303 303 299 291 288 288 287 288 288 288 285 281 281 282 283 283 290 283 283 286 282 285 282 281 285 282 282 277 280 279 281 283 279 279 279 280 279 280 281 281 281 280 279 278 278 278 278 276 276 276 277
297 297 297 298 298 299 300 301 302 302 302 303 301 301 300 301 304 301 299 298 294 290 292 289 291 288 286 292 295 293 295 300 301 302 303 304 303 303 298 292 290 287 287 286 287 287 284 283 285 282 285 283 289 284 285 279 282 279 280 283 281 280 278 281 279 276 277 278 280 279 275 275 279 279 280 281 281 280 278 277 277 277 276 275 275 273 273
295 296 296 297 297 298 299 300 300 301 301 301 301 300 301 299 300 302 303 301 296 288 290 288 286 287 288 287 289 291 295 298 300 300 301 301 302 301 297 294 291 289 287 286 281 283 282 282 281 285 283 281 284 278 284 280 282 279 282 283 283 282 283 281 278 278 278 283 282 282 283 281 280 280 281 281 281 279 277 277 277 277 277 276 275 272 270
295 295 295 296 297 297 298 298 299 300 301 300 298 298 298 300 301 302 302 304 301 295 293 291 287 286 287 288 292 288 289 295 296 298 298 298 299 298 296 294 292 291 289 289 288 287 285 285 287 283 282 285 284 277 282 275 279 279 283 287 285 286 287 285 284 284 281 281 282 283 282 281 280 281 281 281 281 280 279 279 278 277 276 275 275 274 273
295 295 295 295 296 297 297 297 298 299 300 297 296 292 289 290 299 299 302 302 301 298 291 288 285 285 287 282 282 286 289 292 294 295 295 295 296 296 296 293 292 293 290 288 288 285 286 285 283 284 283 288 286 281 281 278 280 281 287 288 287 286 286 286 285 284 282 281 283 283 283 283 282 282 282 282 280 280 279 278 277 276 275 275 275 274 274
294 294 295 295 295 297 297 296 297 298 298 294 291 285 284 283 291 303 303 303 303 298 292 291 286 287 285 282 285 285 287 289 289 291 292 294 295 295 296 296 293 293 287 285 286 287 288 279 283 283 284 286 286 281 279 279 279 282 286 287 286 285 285 284 283 283 281 281 282 282 282 280 278 279 279 280 279 280 279 279 278 277 276 274 274 274 272
294 294 294 294 295 296 297 297 297 296 295 292 287 286 288 291 296 298 299 299 300 295 291 287 283 281 275 283 283 285 287 288 289 289 290 292 291 292 292 294 289 293 291 288 287 285 283 283 285 283 283 285 285 275 280 279 279 282 287 285 285 284 284 282 283 281 281 281 280 279 277 276 278 280 279 279 279 279 279 278 277 276 274 272 269 268 268
293 294 294 294 294 295 296 297 297 295 292 295 298 298 298 299 299 298 297 296 295 292 290 289 283 282 283 278 284 282 285 286 284 287 285 289 285 290 287 290 288 288 292 288 281 283 285 285 283 282 283 287 278 277 279 279 281 286 283 282 282 282 283 283 283 282 280 281 283 279 276 276 277 280 281 279 278 277 275 273 272 270 268 266 265 265 264
293 293 294 294 294 294 295 296 297 297 296 292 287 288 293 297 297 299 298 296 292 289 287 284 279 281 274 284 277 276 288 282 281 287 280 287 284 288 282 287 284 285 283 287 285 283 278 284 280 282 285 280 282 277 273 280 285 284 281 281 281 282 282 282 282 279 279 281 283 283 281 280 279 277 276 276 274 272 272 270 269 268 267 267 266 266 264
293 293 293 293 294 294 294 293 289 289 285 286 287 290 293 296 298 298 297 294 286 285 284 282 282 274 276 274 273 279 287 283 280 286 283 283 287 282 284 282 280 283 281 287 277 280 280 281 284 281 275 282 279 273 278 282 283 282 279 280 281 281 281 280 280 280 280 281 281 280 279 278 276 275 275 275 272 270 269 268 270 269 267 267 265 263 263
293 293 293 294 294 294 290 289 288 285 284 284 284 292 296 297 298 296 296 297 292 285 286 281 285 277 280 275 275 278 287 277 283 281 280 283 279 282 282 280 277 282 285 283 275 282 278 283 284 275 283 278 273 279 282 284 283 282 280 280 281 281 281 281 280 281 281 280 279 277 277 277 277 276 275 274 271 270 270 268 268 269 269 267 264 263 263
292 293 294 293 290 286 283 283 288 286 284 288 292 295 297 297 296 296 295 293 295 295 287 283 283 278 285 278 283 280 284 272 284 276 280 279 275 283 276 278 275 282 277 273 278 279 281 286 276 275 280 277 279 284 283 284 284 282 281 281 281 282 282 282 282 282 280 278 277 276 276 276 276 275 274 272 270 269 268 268 267 268 267 266 264 262 262
293 292 288 284 283 279 278 281 281 287 295 294 294 290 288 291 285 287 287 288 288 293 286 287 284 284 284 281 276 282 283 274 285 274 279 280 278 272 280 277 276 284 269 275 278 284 280 278 273 275 278 284 283 281 281 281 281 283 282 281 281 282 282 282 282 280 277 275 274 274 274 275 274 273 272 270 269 268 269 270 269 270 270 268 266 264 262
290 286 283 282 280 277 278 280 290 294 291 291 291 285 282 287 284 282 280 284 285 283 283 286 283 287 283 282 280 287 279 278 279 277 275 281 276 269 279 272 277 278 263 275 274 286 272 275 275 274 275 280 281 281 281 280 281 282 282 282 282 282 282 282 282 280 279 278 279 278 276 275 275 272 272 271 270 270 271 270 268 268 268 267 265 264 262
283 279 278 278 278 280 287 290 292 289 287 282 284 283 278 284 280 276 286 281 274 278 286 280 285 288 286 283 281 280 286 282 275 276 277 278 284 274 279 272 272 276 265 274 273 284 270 271 276 273 273 279 280 282 279 280 280 281 282 283 283 283 283 282 281 282 282 282 281 278 278 278 277 275 273 272 270 269 267 267 267 267 266 266 265 263 262
282 280 279 276 281 282 283 287 287 285 282 280 279 279 276 274 276 278 282 277 279 278 284 280 285 280 283 286 286 280 285 283 280 283 280 274 283 279 274 273 282 267 264 271 276 273 271 272 272 274 274 280 280 280 279 279 280 281 282 283 282 282 282 282 281 281 281 281 279 277 278 278 278 277 275 273 271 271 269 268 266 266 265 264 263 263 262
283 282 282 285 285 285 285 283 282 280 280 282 276 271 277 276 279 272 274 274 277 280 278 281 280 282 282 285 284 282 279 284 282 280 277 273 282 274 272 276 275 267 265 274 275 270 273 266 269 272 278 278 278 280 280 279 280 280 281 282 282 282 282 282 281 281 281 281 279 278 277 277 276 276 274 273 272 271 270 268 266 265 265 264 263 261 259
291 289 286 282 283 281 283 276 280 280 272 274 273 268 276 272 273 272 275 278 281 279 277 284 280 284 280 282 279 283 279 286 278 278 276 271 283 275 272 273 273 264 269 277 272 271 271 268 270 275 278 277 279 279 280 281 281 281 281 282 282 282 282 281 281 280 280 280 280 279 277 276 276 275 274 273 272 270 268 268 267 265 264 262 260 259 258
286 285 278 279 277 278 279 269 281 274 272 275 271 268 274 269 273 276 272 274 278 277 281 277 279 283 277 282 277 279 279 279 282 277 274 277 272 269 274 268 270 273 277 267 271 270 271 273 275 274 274 276 278 280 280 281 281 281 281 281 282 281 281 281 281 279 278 279 279 279 277 276 274 271 271 272 272 270 268 266 265 264 263 261 259 258 257
280 278 276 273 271 277 275 268 283 274 269 272 276 273 274 271 275 276 274 279 279 277 282 281 283 283 278 280 279 278 281 274 285 272 270 277 268 273 269 268 274 272 269 269 270 267 269 270 275 273 274 276 278 280 281 281 281 281 281 280 280 280 279 279 278 278 278 278 277 276 275 273 272 270 270 270 271 271 268 264 263 262 261 259 257 256 255
277 275 275 270 268 274 273 270 273 265 273 277 276 276 276 277 278 278 277 277 277 279 279 280 282 280 277 279 277 277 278 276 273 273 276 274 270 267 273 275 273 267 269 269 266 268 271 273 274 275 277 277 279 279 280 280 281 281 280 278 279 279 279 279 278 278 277 277 275 275 274 272 271 269 268 267 267 267 266 264 263 262 260 258 256 255 255
278 278 276 275 270 273 276 270 272 274 274 275 277 277 278 277 275 276 276 278 280 281 280 280 280 280 277 276 275 275 276 277 272 276 275 268 270 272 276 269 267 270 267 266 267 269 272 274 275 277 277 278 278 279 279 279 278 278 279 279 278 278 278 278 277 277 275 275 274 273 270 270 268 266 263 263 261 262 262 262 262 261 260 259 257 255 255
273 278 277 268 268 273 271 273 277 277 278 278 279 279 278 278 276 276 278 280 281 282 280 279 277 278 277 280 279 274 275 275 273 272 275 272 274 267 268 268 265 269 270 269 271 274 273 275 276 277 278 279 279 278 277 277 277 277 277 277 277 277 277 277 277 276 273 273 272 270 268 266 263 263 264 261 258 258 260 260 260 260 258 256 255 255 254
279 276 270 270 273 273 274 277 276 274 277 279 280 279 279 278 277 278 280 282 282 280 280 279 278 278 274 278 275 275 271 276 270 271 273 268 267 266 268 263 266 266 271 273 273 275 275 277 277 278 278 278 278 278 277 277 277 276 276 276 276 277 277 277 277 273 271 271 270 267 265 263 262 261 258 258 258 257 258 258 258 257 256 255 255 254 254
274 273 275 272 272 273 275 277 275 274 277 279 278 278 279 279 279 280 283 281 282 281 282 282 282 278 276 275 271 273 273 274 272 274 270 268 267 268 267 264 268 269 271 273 273 274 276 276 277 276 277 278 277 277 276 275 274 275 276 275 274 274 275 274 270 268 269 268 266 264 261 261 260 259 259 259 257 256 255 255 255 255 255 255 255 254 253
278 275 274 277 273 273 275 271 272 273 274 275 277 278 279 279 280 280 283 282 282 281 279 276 277 275 273 272 272 268 269 276 272 270 270 269 270 269 268 268 270 271 271 274 277 276 275 276 277 276 276 277 277 277 276 275 274 273 270 268 267 267 266 266 265 264 262 262 261 260 260 259 259 258 256 255 255 254 253 253 253 253 253 253 254 254 253
274 271 272 275 277 277 277 277 277 276 277 278 278 280 281 279 281 282 284 283 281 278 276 276 274 273 271 270 272 273 274 272 271 272 267 268 271 268 268 270 270 269 270 273 271 269 267 264 266 272 275 276 276 274 271 270 267 265 265 264 264 264 263 263 262 261 259 259 259 258 256 255 255 255 255 255 254 254 253 252 252 252 252 253 252 253 253
Wind_Speed
24 24 23 24 23 22 22 22 21 19 22 10 5 7 6 10 6 3 7 9 9 7 6 2 5 9 5 2 8 5 4 4 5 9 3 4 6 3 6 7 5 7 7 3 4 7 6 7 8 4 5 7 9 4 10 10 7 6 0 2 2 4 2 2 11 6 5 1 1 3 2 1 2 4 2 4 11 14 14 11 3 5 1 3 9 10 15
25 24 24 24 24 23 23 23 23 22 23 10 8 8 5 4 5 3 2 4 4 7 12 10 11 10 2 6 8 6 6 6 4 6 6 7 3 8 4 1 12 7 5 5 7 6 4 8 11 7 5 5 2 3 9 13 8 9 8 8 6 3 4 6 4 6 7 2 3 4 2 1 4 4 8 11 7 6 3 2 2 6 15 15 8 15 19
25 25 25 25 24 24 24 24 24 24 25 15 11 6 3 2 1 2 5 6 7 12 6 7 9 12 11 8 12 8 7 10 13 8 7 4 4 4 7 10 3 5 4 5 5 6 16 7 4 6 5 5 0 7 9 7 7 2 1 2 6 5 4 7 6 9 13 16 12 9 4 9 5 3 4 8 13 10 3 8 10 10 15 11 13 16 17
26 26 26 26 26 25 25 25 25 26 26 20 11 6 4 7 6 5 5 7 7 6 1 1 4 5 7 9 15 15 14 3 10 15 10 9 4 8 2 1 7 6 3 5 7 10 10 12 2 3 3 3 1 2 5 1 3 2 3 1 5 3 1 7 12 10 16 17 11 2 5 4 6 5 10 12 11 14 13 9 3 17 9 10 21 18 19
27 26 26 27 27 27 27 27 27 28 27 24 13 6 4 2 8 7 8 5 9 10 8 7 4 7 9 8 4 13 15 10 5 13 7 9 10 5 10 4 6 4 5 9 11 15 12 8 8 7 4 2 2 4 2 3 3 5 3 1 4 2 3 12 13 19 22 19 16 2 5 12 14 11 11 10 13 14 17 16 21 6 4 20 24 11 15
28 28 28 28 28 28 28 28 29 30 29 27 12 10 8 10 6 6 9 9 10 14 12 16 13 15 8 12 5 5 12 12 11 3 10 5 11 10 2 9 15 12 15 9 8 15 10 7 11 9 8 1 1 1 1 3 2 4 1 0 4 6 9 14 8 19 21 19 15 8 8 9 13 16 11 11 14 17 21 21 24 13 13 24 26 10 14
29 29 29 30 29 29 30 31 30 31 31 27 14 12 10 8 2 3 9 9 7 20 17 21 20 21 16 9 12 18 13 11 11 6 4 8 7 16 13 16 18 15 15 15 17 15 3 8 12 9 10 14 4 2 1 4 3 4 2 2 2 2 9 13 6 15 14 16 11 7 11 14 16 22 15 15 18 22 21 22 21 20 23 26 23 24 28
30 30 31 31 31 31 31 31 31 32 33 25 15 16 12 14 12 4 8 8 4 8 8 12 17 18 20 13 21 13 10 18 10 3 9 7 15 12 19 20 12 20 23 22 20 19 16 13 13 9 9 5 5 5 8 3 0 2 6 5 4 8 7 4 2 7 17 18 6 8 10 12 20 25 13 19 21 20 21 19 20 19 22 25 28 28 29
30 32 33 31 32 33 34 34 35 34 34 16 18 15 15 7 10 5 6 10 8 5 9 12 16 15 14 18 18 7 16 22 14 13 14 23 12 12 24 25 21 17 21 22 24 20 14 16 21 9 16 14 10 9 5 13 7 7 4 3 3 7 5 5 2 4 15 6 7 8 8 10 19 26 19 19 19 21 23 17 23 17 22 24 21 18 22
26 28 29 31 33 34 34 33 34 34 36 18 12 16 13 7 3 11 5 9 8 12 9 10 8 17 20 17 17 15 23 21 13 13 14 18 13 12 24 24 16 10 12 19 25 24 18 16 10 5 6 0 2 12 3 16 14 11 12 4 7 8 5 5 4 3 16 2 4 5 3 6 17 27 25 22 25 26 17 17 19 20 19 15 18 23 23
16 24 29 30 32 32 33 34 36 39 28 19 15 15 12 16 14 11 8 11 10 15 13 13 18 19 14 15 18 22 16 15 16 18 7 9 21 21 13 11 12 12 19 20 7 2 2 6 7 4 6 2 1 2 1 7 8 14 13 5 4 5 9 6 6 7 1 4 4 3 2 8 24 3 6 18 24 23 23 25 25 22 17 18 20 22 13
13 14 20 25 28 30 32 34 35 39 35 24 21 18 15 15 12 10 12 18 21 17 16 19 24 19 15 20 24 23 24 21 21 21 24 15 10 13 15 12 7 15 2 9 14 12 11 5 7 6 7 6 3 4 2 9 7 6 13 13 10 12 9 7 5 4 3 4 3 1 5 25 2 2 1 7 14 17 21 26 26 22 18 20 22 23 20
14 14 14 17 23 27 30 32 36 38 42 26 20 19 15 15 14 14 14 16 17 17 17 21 21 23 20 18 19 18 17 22 21 21 22 18 7 6 12 16 18 14 11 10 15 12 6 2 1 1 2 3 2 2 4 4 7 8 7 6 10 10 11 6 4 4 2 3 5 2 21 6 11 6 7 4 3 6 8 17 26 18 15 16 20 24 21
15 14 15 15 17 22 28 30 32 35 39 32 19 18 13 16 15 12 11 10 16 15 16 12 15 22 27 22 12 11 16 18 17 16 17 16 17 15 10 5 5 10 13 13 9 9 3 2 4 3 4 2 4 5 4 4 12 9 12 11 6 12 6 7 6 6 9 7 10 19 14 23 32 18 5 9 9 9 11 10 20 11 18 16 19 20 15
18 17 16 16 17 16 21 29 33 36 36 39 22 18 15 15 16 14 10 12 17 16 16 18 20 30 26 14 13 18 15 12 10 13 16 7 11 7 7 2 2 13 15 12 3 2 5 4 3 5 2 2 11 8 3 4 2 11 13 11 9 8 14 7 8 7 8 6 8 4 7 10 20 3 2 5 6 6 4 1 20 6 15 17 19 16 13
19 17 16 16 16 18 18 19 24 28 28 34 23 17 17 17 16 13 12 13 12 16 19 25 27 14 13 17 21 23 18 15 13 7 6 9 9 3 1 1 3 9 7 3 6 6 5 8 9 6 11 10 1 4 6 2 3 1 4 7 7 3 0 2 12 5 4 7 9 9 9 19 2 3 2 4 6 10 5 3 16 6 15 12 11 13 7
21 19 18 17 16 17 18 19 19 21 27 33 24 22 20 19 15 14 13 11 11 21 15 21 16 17 6 7 9 17 17 15 11 10 10 13 8 4 3 1 3 3 9 7 4 7 5 9 8 9 9 4 5 6 5 2 3 2 5 5 7 8 6 4 4 11 11 8 6 13 8 14 2 4 2 5 8 8 3 6 10 3 2 6 8 9 8
23 22 21 19 18 18 17 17 19 19 19 25 21 14 14 12 16 12 14 14 15 17 16 16 15 14 16 17 17 4 4 3 6 5 7 1 7 5 6 4 5 3 0 10 8 10 10 9 13 13 13 3 3 7 9 8 6 8 9 12 7 8 5 9 20 13 11 12 10 6 11 11 9 10 6 7 6 7 3 16 7 4 5 5 8 8 9
23 24 24 22 21 19 19 18 18 18 18 20 16 17 20 22 22 22 16 13 11 15 15 21 12 14 11 7 7 5 6 15 11 7 4 1 4 4 10 1 2 7 7 9 6 9 11 11 3 5 9 4 4 9 6 7 9 5 14 8 1 1 2 4 3 8 14 10 10 13 11 12 9 8 17 11 7 2 17 2 5 9 6 6 9 8 9
24 24 24 25 24 23 21 20 20 19 19 19 16 14 13 15 16 15 13 13 7 14 13 16 12 22 11 14 11 11 4 6 9 14 10 12 7 13 5 3 3 4 3 3 9 4 7 13 13 3 6 8 8 4 1 5 7 12 7 10 9 14 11 10 13 5 1 3 7 3 11 7 22 16 7 8 8 9 4 5 1 3 8 8 5 8 8
24 24 25 24 23 25 24 22 20 19 19 19 16 13 13 12 14 16 17 18 16 16 17 17 12 15 14 18 19 19 20 21 17 16 17 12 13 9 10 13 13 10 10 11 13 12 9 12 8 6 2 6 5 4 11 7 1 7 9 8 5 9 6 5 7 10 8 10 11 15 12 8 20 23 15 15 18 5 8 8 6 0 6 8 7 5 10
24 23 23 23 24 23 23 24 22 21 19 19 18 13 15 11 11 12 15 16 14 15 5 6 4 8 15 19 17 16 20 23 22 18 11 8 11 18 7 9 12 10 4 4 4 3 3 3 3 5 9 4 3 14 7 6 10 4 2 7 5 20 15 9 11 10 13 13 18 8 7 14 17 14 1 13 10 7 9 8 9 8 4 4 8 9 8
24 24 23 23 23 24 24 24 23 22 23 21 17 12 14 9 11 7 10 16 11 7 3 3 1 2 5 8 13 16 14 5 9 9 11 12 9 12 7 10 9 4 2 6 14 13 9 10 11 4 2 7 14 8 6 11 6 8 11 15 7 0 12 7 3 8 9 10 8 6 2 10 15 13 3 4 6 4 6 8 7 6 8 8 9 9 11
24 24 24 24 24 24 24 24 25 24 23 23 18 12 11 10 12 10 11 11 9 14 10 10 9 20 17 22 20 4 2 8 17 19 13 16 11 7 3 4 2 2 4 12 1 6 5 3 3 3 10 6 7 7 10 11 14 7 4 1 9 8 4 6 7 3 9 12 11 15 12 10 14 17 6 1 5 9 6 7 7 7 7 7 4 11 11
24 24 25 25 25 25 24 24 24 24 25 25 21 14 13 14 11 12 13 12 6 9 14 3 17 21 22 20 8 7 16 20 16 12 10 15 18 15 18 20 12 14 18 10 4 6 3 6 4 4 13 8 12 12 10 9 6 11 9 9 2 5 13 8 16 9 13 14 5 8 12 14 15 13 12 7 7 7 6 5 5 6 7 8 8 6 6
25 25 26 26 25 26 25 24 24 24 23 26 22 13 12 12 9 11 13 13 10 5 10 12 8 3 4 9 14 20 20 20 16 19 21 22 23 23 16 7 3 3 4 6 7 11 7 4 4 3 8 9 13 9 11 14 2 9 16 17 12 7 16 10 15 15 19 10 5 5 4 5 9 9 11 11 10 8 6 5 6 7 9 6 4 5 10
26 26 26 27 26 25 26 26 25 25 25 24 16 13 11 10 10 13 13 10 9 12 12 16 5 3 2 17 6 3 3 16 18 21 21 22 22 18 11 13 12 6 9 5 4 6 1 5 7 12 11 6 8 7 5 4 9 7 8 6 12 11 15 6 9 13 14 19 18 16 6 8 13 15 15 13 10 10 8 7 7 8 9 9 9 4 2
25 26 27 26 26 26 27 27 26 26 24 23 16 13 13 13 13 13 13 15 15 16 7 6 2 4 0 7 4 6 10 15 19 21 22 22 22 18 16 17 15 13 9 10 3 5 8 10 14 3 3 0 4 6 3 3 5 1 9 13 16 17 20 15 15 17 19 19 8 18 16 3 3 12 13 13 8 10 11 11 11 10 12 13 12 8 4
25 26 26 26 25 26 27 28 28 26 26 20 12 13 13 13 12 14 15 14 15 15 12 9 1 2 8 6 8 10 3 9 17 19 20 20 21 19 19 19 19 15 12 11 10 12 13 14 5 8 7 7 5 4 8 8 10 15 19 21 16 20 15 21 25 11 4 5 13 15 12 13 6 11 14 12 10 12 13 12 13 14 12 11 13 14 15
25 26 27 28 27 27 28 29 29 28 25 13 10 9 11 8 10 13 14 15 14 10 14 12 11 6 1 3 3 2 9 14 14 16 19 16 19 19 18 17 15 15 13 13 14 15 10 5 3 1 1 6 10 5 7 6 10 15 16 13 16 18 15 12 7 12 8 4 10 12 11 6 7 12 12 12 10 13 12 11 11 10 10 13 13 9 8
26 26 27 28 29 27 28 28 28 27 24 12 7 9 8 11 2 6 5 7 10 12 10 8 12 0 4 4 4 10 12 12 13 15 18 19 19 20 17 15 14 15 12 2 6 12 7 9 9 8 5 8 7 8 7 9 10 7 18 20 14 17 17 11 7 5 7 7 7 6 5 5 5 5 4 8 9 11 10 8 11 13 15 11 11 11 9
26 27 27 28 29 29 29 28 28 24 14 13 13 10 3 5 10 18 18 13 9 10 11 11 5 4 3 3 3 4 5 6 4 3 5 5 12 8 10 15 11 13 14 13 7 3 6 4 9 8 11 12 8 2 3 7 13 17 18 10 13 13 9 10 10 7 8 12 14 8 5 3 7 13 9 8 10 10 12 11 10 8 10 7 6 5 5
26 27 28 28 29 29 30 29 28 21 13 15 25 28 27 33 33 27 23 19 10 10 1 8 8 3 4 7 5 1 5 5 3 7 8 6 8 8 10 6 3 3 5 6 6 8 4 9 4 8 8 9 6 5 6 14 16 20 7 10 10 11 14 12 12 10 12 12 16 13 11 11 10 8 8 11 10 10 11 11 9 11 11 11 9 9 8
27 27 28 28 28 29 30 30 30 30 25 16 14 12 10 20 21 24 16 12 11 4 3 5 2 5 5 4 4 8 8 12 9 12 8 4 3 9 6 8 5 8 4 13 5 4 3 4 9 8 7 7 3 5 8 13 22 17 9 7 10 12 13 12 12 10 11 11 9 9 11 11 9 6 7 10 8 5 9 11 13 12 9 10 10 9 10
27 28 28 28 27 27 28 28 17 12 11 11 13 10 13 22 21 19 17 10 12 7 4 5 3 3 1 3 3 5 4 6 9 12 13 5 4 8 5 9 3 10 7 5 1 3 7 8 9 8 11 9 7 8 9 18 26 13 10 11 13 13 11 12 10 11 10 10 7 6 9 11 13 9 10 10 10 11 12 9 11 15 11 8 10 12 10
26 27 26 27 27 21 13 14 10 9 10 11 11 12 23 23 22 19 18 16 14 9 9 5 5 9 7 7 6 5 6 2 1 5 2 4 2 1 1 5 8 9 2 4 5 6 7 7 8 11 9 11 15 14 22 24 18 17 18 15 15 17 16 16 12 12 10 9 9 8 10 11 14 12 11 12 12 11 12 13 7 8 13 12 10 10 7
26 26 25 21 11 6 8 9 7 9 11 8 14 20 25 21 14 15 15 13 12 10 12 4 9 9 12 7 1 3 8 8 5 4 4 5 7 1 4 3 9 3 4 1 4 10 8 4 3 6 11 16 18 22 12 7 15 16 16 14 12 11 12 11 14 16 12 10 11 9 11 11 10 9 11 11 11 10 10 13 14 13 12 13 11 12 13
25 21 8 6 5 7 7 5 5 7 15 22 21 14 9 8 11 7 6 10 7 11 9 8 15 5 3 8 7 9 8 7 3 7 4 3 6 2 3 2 6 5 9 6 6 3 4 2 5 10 13 11 6 3 9 8 5 9 11 13 13 14 13 12 14 14 14 10 8 11 9 10 11 11 14 12 12 13 14 13 13 12 11 13 15 13 11
17 7 4 4 4 6 6 5 6 19 12 9 7 5 7 5 8 9 7 5 2 12 6 11 14 10 10 7 1 1 6 11 9 7 10 8 6 4 3 8 7 3 3 2 7 7 4 7 3 5 10 11 15 13 9 9 8 9 12 14 15 14 13 13 16 19 18 18 20 19 17 16 17 13 10 12 11 12 11 10 10 10 9 9 10 10 12
2 4 3 4 7 8 7 6 13 11 3 6 5 8 9 5 11 9 4 7 5 4 4 12 6 10 16 16 12 9 4 8 11 10 9 3 0 7 2 3 5 3 5 7 6 6 8 10 7 7 14 13 19 12 9 11 10 11 14 15 15 15 15 15 13 14 17 16 13 14 15 14 14 15 14 14 14 13 8 7 8 8 9 11 12 14 16
4 4 4 6 5 3 3 6 6 2 3 6 5 5 3 7 6 3 5 12 9 4 2 4 6 7 2 8 13 10 3 5 3 4 4 4 3 6 1 5 3 4 4 4 2 5 2 1 2 12 17 19 14 11 11 9 11 12 13 13 14 14 15 15 15 15 14 12 9 12 14 16 15 15 14 16 15 15 15 13 12 12 11 11 14 12 9
6 6 4 5 6 7 6 3 4 4 5 5 5 7 5 4 2 2 2 7 9 4 3 4 9 11 9 11 8 7 1 1 3 2 4 5 4 5 4 1 2 5 4 2 5 3 3 4 5 8 15 7 10 13 12 12 11 12 12 13 15 15 16 16 16 14 14 15 12 12 12 13 13 12 12 13 13 13 11 11 10 11 14 8 9 11 12
17 15 8 6 4 5 3 5 4 4 5 6 5 4 4 5 6 4 4 2 2 2 6 4 0 3 3 3 5 2 4 2 5 3 3 5 2 4 4 3 3 2 5 2 5 4 7 7 9 15 3 8 11 12 13 14 13 12 15 16 15 15 17 17 17 16 15 14 14 13 13 13 13 12 12 13 12 10 8 10 15 14 12 12 12 12 13
6 5 5 3 5 4 3 9 3 3 5 4 4 8 5 3 3 2 0 3 2 3 6 10 10 12 9 1 6 5 3 2 2 3 3 1 4 3 3 4 4 3 4 4 3 6 7 4 9 2 7 8 8 12 12 13 13 13 13 13 13 13 14 15 13 12 12 11 11 11 10 11 10 7 8 10 14 16 12 8 8 12 12 13 12 12 12
4 3 2 2 4 2 3 5 3 5 9 10 5 6 5 7 6 7 9 5 4 9 8 6 11 11 9 4 5 3 2 4 1 6 5 4 3 2 3 5 2 2 4 5 2 1 1 10 3 7 7 9 10 12 13 12 12 14 14 12 12 12 12 13 13 12 13 13 12 10 10 10 10 11 11 12 10 12 16 14 12 14 13 13 12 13 11
4 5 4 5 6 4 4 6 2 5 4 3 6 7 7 8 5 8 3 1 4 5 9 10 9 10 9 1 5 6 4 3 4 1 2 2 5 2 2 1 3 4 2 3 4 10 13 4 7 8 9 11 11 9 8 10 11 11 10 13 13 14 14 13 12 13 12 11 10 11 11 10 12 12 10 9 10 9 9 12 14 16 15 15 15 15 13
4 3 3 3 5 6 2 7 9 5 3 5 5 4 6 7 4 4 3 1 5 4 7 3 5 8 12 7 5 3 2 2 4 3 4 4 4 2 2 5 2 3 6 6 7 7 6 3 6 8 10 10 9 9 10 9 8 9 12 12 11 13 12 12 12 12 10 11 11 10 10 10 9 10 11 10 6 6 9 12 12 14 16 17 15 14 14
6 3 3 5 5 2 5 5 3 8 8 7 9 7 7 3 2 3 1 2 4 8 13 12 9 5 4 2 3 4 4 3 4 2 2 4 2 5 1 2 1 3 3 7 10 3 3 5 8 9 9 11 12 11 9 9 8 11 11 10 10 11 12 13 13 11 11 13 12 12 10 11 12 12 12 12 10 7 9 10 12 11 11 13 14 14 15
5 2 3 3 3 3 5 4 7 13 13 12 10 6 5 6 5 4 4 6 9 9 5 7 7 7 4 2 3 3 1 2 4 4 3 3 4 4 4 6 3 2 6 6 1 5 6 7 8 11 10 10 9 10 10 11 11 11 11 11 11 13 13 14 12 11 11 11 12 12 11 11 12 12 11 12 13 9 7 9 11 11 12 16 17 16 14
4 4 3 3 5 8 8 9 9 11 9 7 6 6 5 6 6 4 4 7 7 9 5 5 2 4 2 3 3 1 1 1 3 2 4 3 3 3 4 2 6 5 1 5 4 3 6 7 8 9 9 9 8 9 9 7 7 9 8 7 5 6 8 9 9 10 10 10 12 12 13 13 11 12 14 13 11 11 10 9 9 11 11 12 15 15 15
2 3 4 5 9 10 4 7 9 11 12 10 9 8 6 8 11 9 6 8 10 8 7 6 3 3 3 2 2 4 3 2 5 1 3 3 2 4 5 4 1 4 0 1 7 7 7 6 8 8 6 7 7 7 6 7 6 5 5 7 7 8 8 9 11 11 10 10 12 14 13 10 9 11 11 13 14 14 12 8 6 8 10 10 10 13 14
3 5 5 5 8 9 8 9 9 9 10 10 9 8 6 6 5 8 8 9 11 12 10 3 4 3 2 3 2 2 2 4 2 3 2 2 2 4 1 2 4 3 3 6 6 6 6 7 6 3 3 4 3 3 6 8 8 8 8 9 9 11 10 10 10 11 12 11 10 11 11 11 13 12 13 14 14 13 13 10 7 8 9 8 8 8 9
Wind_Direction
218 217 215 213 210 204 197 190 183 182 160 161 169 142 204 194 206 31 156 166 162 156 230 185 200 225 230 266 280 259 280 249 209 217 189 217 206 216 211 196 200 238 204 182 209 178 240 179 206 210 205 228 204 226 164 130 140 92 354 59 247 108 209 258 267 294 290 217 43 48 64 86 315 260 162 156 207 202 214 224 199 223 214 185 241 236 264
218 216 214 212 210 203 196 189 182 178 171 163 146 181 208 187 181 142 258 180 173 168 205 196 210 225 260 213 241 207 236 225 231 212 196 203 172 207 208 300 206 236 172 179 223 172 262 233 218 247 196 242 130 268 167 161 174 155 215 153 212 108 245 163 297 320 283 215 18 341 351 80 232 203 204 213 231 233 265 352 74 259 235 227 240 253 265
216 215 214 211 209 204 195 188 182 177 177 166 161 181 151 93 185 183 167 170 206 203 204 197 200 213 214 211 232 228 236 221 219 202 220 198 174 178 228 209 139 218 160 199 202 200 206 269 229 182 197 218 23 320 171 216 181 172 232 156 165 185 191 137 226 260 291 292 294 283 202 214 218 217 211 206 205 202 118 240 220 233 250 215 234 248 252
217 215 213 210 206 201 196 188 181 177 178 166 164 179 137 181 216 159 173 175 218 273 10 1 212 189 198 226 234 223 233 230 201 202 229 193 207 205 179 211 175 206 141 208 216 233 229 207 236 138 229 224 312 212 341 92 200 193 149 166 138 190 262 208 213 218 244 254 260 85 111 98 213 231 199 213 207 206 211 229 158 227 256 253 242 234 268
217 217 214 211 207 200 196 191 182 178 180 172 172 177 202 158 223 163 177 125 217 234 210 223 180 215 177 216 185 215 221 220 251 185 225 194 198 225 209 177 171 212 176 211 233 230 231 232 251 222 174 259 204 318 135 48 106 137 120 140 78 76 249 232 220 230 244 250 259 199 164 255 262 248 232 209 206 206 214 212 231 205 56 259 255 227 245
217 217 214 211 209 202 195 193 186 180 181 175 173 199 173 217 215 174 184 165 188 197 212 212 222 235 208 241 252 223 207 198 218 179 213 179 198 210 241 208 210 183 190 201 231 236 222 185 229 234 239 186 243 24 143 187 207 158 175 350 176 163 231 243 203 243 249 254 266 268 261 246 260 258 246 227 215 221 221 227 235 222 219 246 263 258 242
218 217 215 211 207 204 198 193 188 180 180 174 188 202 210 211 11 214 171 224 191 201 192 192 208 224 214 240 228 239 221 211 203 171 188 209 217 200 226 220 209 203 204 202 231 225 141 233 229 213 218 216 169 216 346 247 197 171 143 175 171 83 244 256 212 259 256 258 255 258 256 264 263 255 238 237 232 230 229 237 238 229 243 251 267 270 265
221 218 216 211 207 205 200 195 189 181 177 180 192 210 186 199 188 215 196 218 206 191 180 193 201 222 212 220 228 224 216 228 204 201 173 212 222 199 223 230 202 205 213 213 223 221 207 198 223 209 196 235 184 219 195 121 55 156 190 151 260 159 259 143 167 247 262 264 252 240 242 248 263 261 236 235 242 245 238 238 245 240 249 254 255 260 268
225 220 218 214 210 205 202 195 189 182 171 189 198 211 212 191 199 143 152 206 207 167 176 188 199 215 216 221 234 219 216 231 197 216 205 212 201 180 214 222 221 211 219 222 228 231 215 213 228 188 172 215 197 176 252 150 158 172 167 158 257 197 255 72 130 247 271 274 200 236 247 264 263 269 249 232 236 245 240 226 232 221 234 244 256 261 260
236 232 227 221 215 210 204 198 190 183 176 187 194 219 199 206 160 201 144 213 178 204 180 197 166 226 219 207 211 214 218 221 184 231 235 238 223 196 209 219 219 220 223 230 228 226 222 227 234 223 209 332 157 216 173 165 161 170 189 164 165 192 151 175 169 177 254 30 105 77 49 312 281 257 241 221 226 232 242 245 240 227 228 241 244 243 246
263 246 236 228 221 214 206 199 193 183 179 192 198 217 185 190 191 187 189 230 221 207 189 200 196 226 209 191 220 221 229 210 196 208 222 205 229 223 207 210 207 228 222 230 235 191 136 93 94 64 69 53 47 6 145 204 176 159 161 170 196 166 193 210 152 204 219 60 100 144 73 282 254 42 167 185 217 222 230 242 240 231 209 226 232 248 266
276 271 256 242 230 221 212 206 198 189 186 198 197 205 196 190 195 178 183 203 227 210 196 206 205 225 204 195 207 210 212 210 211 203 225 220 221 213 217 217 195 240 220 96 103 100 101 88 60 68 63 48 44 23 50 199 210 198 167 163 176 188 188 210 156 197 183 143 104 53 238 249 10 223 356 199 209 212 219 237 242 237 228 235 250 255 253
279 277 275 263 247 234 225 213 204 198 194 198 196 208 196 183 186 189 194 205 225 210 208 220 219 228 227 213 208 218 213 218 218 211 222 229 223 176 200 210 212 223 121 125 121 127 123 178 31 137 280 38 11 2 285 248 222 196 222 197 162 188 178 171 198 127 39 114 198 164 241 295 296 197 176 177 173 214 227 262 254 236 231 224 237 246 247
290 285 278 276 267 251 239 229 219 210 202 202 207 211 199 175 188 191 196 202 234 229 224 227 223 234 230 222 205 215 221 226 222 213 225 223 227 221 225 205 222 137 149 128 116 114 86 79 242 208 270 62 338 268 222 197 219 197 208 220 207 184 161 161 220 160 209 198 187 237 323 323 291 277 187 156 190 172 183 230 272 178 213 213 231 240 243
293 288 286 282 279 275 260 242 227 216 207 205 215 212 206 190 193 197 200 204 221 223 209 215 212 225 226 217 199 225 222 219 207 220 222 219 228 230 215 189 168 143 140 133 151 162 164 117 104 213 317 168 235 240 76 260 294 226 214 203 199 182 185 189 164 238 182 190 241 289 275 263 269 103 265 202 184 156 163 194 277 171 195 207 220 231 228
290 288 287 283 282 283 279 273 247 228 217 211 217 217 213 201 200 207 202 204 207 231 222 222 221 219 207 217 203 212 220 219 215 200 202 218 216 50 334 114 207 159 142 85 151 139 160 191 220 199 227 224 205 77 245 100 306 66 208 198 174 234 206 189 202 222 118 204 213 227 229 246 114 197 197 169 119 123 107 79 271 178 198 204 199 222 201
288 285 284 281 281 276 277 280 277 251 225 208 208 213 223 205 208 206 209 220 211 230 222 222 211 217 182 222 200 217 215 224 192 201 214 216 204 133 21 329 348 186 172 125 184 160 178 211 216 233 250 155 154 203 77 195 176 319 103 124 156 179 183 152 260 222 213 203 205 236 209 255 167 168 127 146 137 104 75 341 277 306 183 198 179 208 167
304 294 283 278 277 276 273 272 269 273 263 235 228 240 253 237 223 211 221 215 218 235 234 227 183 203 205 206 214 173 104 85 186 223 229 112 102 159 157 118 152 275 206 192 168 202 205 206 215 219 231 146 151 102 216 142 173 186 171 165 153 181 193 197 214 218 222 210 241 307 273 255 153 159 156 137 129 99 113 237 224 207 165 177 165 198 161
305 304 299 286 277 273 272 271 269 267 268 265 245 229 227 219 212 209 219 227 224 238 227 237 211 218 213 210 209 159 197 191 190 186 104 299 242 147 131 187 148 171 181 195 151 204 207 222 228 210 219 189 153 203 120 162 204 106 134 127 28 281 139 301 278 223 222 210 232 240 280 262 139 173 155 154 99 220 229 249 147 145 164 175 183 164 163
303 302 300 298 291 278 271 269 266 266 264 263 262 253 249 234 230 224 236 245 232 247 243 237 196 216 206 205 182 188 161 191 175 198 182 210 127 123 69 95 283 87 89 122 214 200 202 219 216 151 218 186 203 112 278 259 123 166 180 188 168 179 159 195 207 193 80 179 237 351 267 260 148 142 145 183 170 239 132 132 51 161 160 162 176 158 170
298 299 298 296 294 293 285 272 266 267 265 263 261 268 267 255 245 228 223 230 238 241 242 241 234 220 209 223 216 207 194 202 185 203 208 190 164 128 169 212 176 153 179 179 194 202 194 220 184 187 210 161 183 107 210 185 218 255 134 172 186 157 142 204 219 167 165 179 192 213 225 119 151 148 181 190 209 149 146 128 172 206 162 163 154 177 170
295 298 298 296 294 289 289 286 279 271 266 264 262 260 265 264 256 236 229 228 241 244 232 238 266 219 217 223 224 220 219 217 209 200 180 112 187 196 196 104 154 172 180 136 56 21 250 181 64 153 200 178 97 210 160 127 221 154 140 121 241 191 199 170 190 171 170 198 216 209 124 163 177 184 180 193 175 135 167 146 162 169 232 192 156 178 179
296 297 299 299 298 295 291 288 287 281 272 266 260 254 261 276 262 254 236 239 241 252 89 247 144 13 351 266 229 221 224 234 227 203 164 162 197 218 198 165 192 184 144 193 196 201 180 166 206 156 62 181 191 182 188 206 221 147 186 210 239 37 207 58 73 225 248 305 265 94 174 173 192 209 172 164 162 169 152 148 153 194 174 166 172 179 174
293 296 298 299 297 296 293 289 284 282 281 278 273 266 259 255 264 269 261 256 238 249 232 204 198 236 212 229 225 100 131 213 215 214 191 179 181 209 305 277 140 103 230 219 157 131 147 134 201 158 211 193 122 172 189 223 219 187 130 308 237 210 150 161 226 178 108 252 216 198 198 184 193 201 195 140 175 185 170 163 169 179 166 181 178 168 173
290 293 296 297 297 296 295 292 288 285 281 278 277 275 271 261 255 255 256 253 228 227 245 145 217 229 223 224 179 155 208 214 209 196 167 189 199 192 208 207 181 184 206 189 104 106 98 145 196 160 217 209 158 221 207 228 254 146 199 216 109 265 163 167 224 194 193 243 133 211 177 193 195 194 195 195 195 194 192 178 171 163 173 173 175 149 146
288 290 291 293 294 295 296 294 291 289 287 284 277 267 262 262 263 256 253 256 263 239 251 240 233 229 73 130 194 206 194 202 192 199 197 196 201 209 209 105 167 89 94 132 166 192 180 168 159 200 206 241 180 213 198 206 170 163 197 217 199 134 130 211 192 206 235 268 250 131 150 216 215 206 209 196 192 181 175 154 140 140 141 126 119 167 164
288 286 286 289 292 294 294 293 291 288 287 287 282 269 262 263 258 257 254 262 279 261 236 251 221 231 193 212 194 74 170 187 186 200 205 207 206 210 188 163 168 129 152 155 211 187 76 199 184 217 206 245 169 223 136 117 160 178 209 215 119 131 207 174 119 211 223 222 213 139 158 220 208 202 200 202 194 166 148 130 135 149 143 148 145 105 100
289 286 285 285 287 291 293 293 292 290 289 290 287 278 266 260 250 249 250 248 237 259 302 314 261 269 25 266 256 220 197 193 192 196 204 206 207 203 194 191 179 174 172 158 147 175 195 194 219 208 95 255 166 250 148 38 45 301 230 214 182 187 205 166 193 201 221 226 172 182 208 229 176 182 195 198 181 148 151 166 168 176 167 161 146 135 131
293 290 286 286 287 288 289 291 292 293 294 292 288 287 273 252 245 242 240 241 247 256 255 264 45 221 212 244 184 205 232 188 199 203 205 203 201 199 198 195 195 192 189 194 202 197 200 214 163 171 188 193 129 225 123 196 194 215 221 219 187 221 204 193 210 210 1 133 163 181 190 202 176 176 186 188 176 164 178 183 175 171 166 167 163 166 165
291 292 291 287 284 284 284 287 289 291 294 292 291 288 282 266 215 229 224 227 229 240 253 248 250 236 80 49 317 193 191 200 204 199 202 196 201 199 199 192 204 189 189 193 188 211 197 195 201 198 261 199 185 193 199 187 217 228 242 231 202 219 219 218 190 199 211 173 162 180 186 178 156 174 182 184 178 175 181 182 174 165 172 169 171 180 177
291 293 293 290 286 281 280 280 284 288 290 284 285 264 243 266 237 188 240 246 219 230 243 242 248 68 269 269 206 202 197 188 195 197 199 197 200 198 199 194 200 178 193 160 195 218 145 204 165 210 160 199 165 187 192 170 218 235 233 227 196 210 211 198 179 180 133 147 136 134 137 135 124 103 176 187 184 179 173 176 172 169 170 173 182 172 167
291 293 293 291 288 284 280 279 280 284 278 270 254 236 234 281 318 301 299 284 297 253 244 236 237 197 237 249 183 219 177 187 180 156 214 162 218 194 212 196 201 189 199 198 200 127 216 150 202 181 161 192 162 133 163 184 216 233 234 213 190 200 169 178 175 157 129 140 115 85 115 163 180 166 199 190 177 174 170 166 163 151 150 136 95 88 114
291 292 293 292 289 283 280 278 275 272 266 274 275 273 270 270 268 271 286 297 286 253 246 243 233 191 202 225 149 283 132 112 129 160 228 182 223 160 217 182 191 181 220 156 205 198 198 172 138 172 196 147 147 195 193 211 216 233 188 166 180 159 177 179 172 163 155 162 152 167 181 179 200 207 166 156 157 152 139 130 126 120 121 122 120 115 110
289 291 291 292 291 286 281 276 275 276 278 274 273 262 251 246 249 247 248 261 271 268 242 242 227 221 251 263 108 269 192 161 189 172 212 176 124 184 200 155 201 181 242 202 238 103 309 145 185 170 145 184 172 151 226 224 230 220 155 184 159 171 172 171 169 160 166 170 177 176 171 173 159 112 111 131 113 86 112 120 127 127 142 144 152 147 138
290 291 291 289 287 290 289 284 274 260 252 257 255 253 263 259 253 250 241 235 252 230 225 233 160 115 178 9 161 233 151 134 177 185 192 183 150 159 153 178 226 211 229 100 354 194 168 214 152 165 207 152 168 225 226 225 228 195 170 178 175 161 163 168 187 165 163 170 158 141 139 131 131 149 155 148 142 143 138 152 157 142 147 170 156 147 155
291 294 293 291 292 292 292 275 248 246 240 237 249 256 251 253 252 251 243 227 222 254 245 233 201 206 161 177 191 228 126 29 332 54 99 133 50 289 108 117 196 224 78 182 193 183 196 184 155 223 155 168 213 194 219 218 214 188 186 181 179 169 173 170 157 161 167 167 155 136 144 156 163 166 157 162 157 161 156 150 165 165 162 159 166 155 157
292 295 299 301 297 260 257 256 232 221 242 244 250 250 254 257 254 249 242 237 224 213 231 198 230 208 193 200 151 214 151 175 190 90 219 157 163 148 103 203 205 178 97 139 182 194 204 149 95 160 185 196 214 217 224 195 207 191 187 177 167 160 161 165 162 161 163 155 154 159 164 173 172 158 158 165 165 159 152 169 171 166 174 175 164 174 183
296 302 306 287 263 264 263 238 222 226 228 238 244 260 234 208 237 207 200 219 205 196 222 191 232 188 50 153 203 202 147 228 160 134 169 155 128 259 184 195 222 182 214 188 204 124 71 163 192 187 224 228 250 168 194 191 171 164 161 153 159 168 168 163 158 157 154 154 168 180 181 176 171 177 165 173 164 174 188 183 181 188 174 169 177 168 145
305 295 266 218 236 250 242 240 342 339 323 291 252 251 231 207 215 211 202 175 159 220 196 201 215 167 166 178 93 171 140 170 158 178 171 211 128 268 178 181 252 133 312 188 251 173 186 225 130 202 238 223 231 214 190 154 156 154 151 159 167 172 164 167 167 167 175 185 193 188 176 180 181 181 176 167 185 190 187 179 179 181 173 162 154 157 158
274 268 238 231 231 243 257 308 339 333 295 271 221 223 232 204 218 241 157 204 241 257 183 221 191 177 179 174 155 194 207 171 159 183 177 191 161 158 227 92 275 141 212 200 214 174 138 193 186 178 238 222 234 197 151 169 154 155 158 170 170 168 168 169 177 182 186 194 180 170 180 180 171 170 180 182 177 184 189 185 179 168 164 166 159 159 169
235 234 259 248 257 268 279 299 312 262 222 232 245 236 165 232 235 216 208 219 206 212 182 167 165 168 246 164 174 171 166 81 349 58 111 160 233 84 46 188 222 92 254 176 221 88 144 196 196 208 223 224 222 153 157 146 152 166 169 168 169 169 172 176 183 187 187 187 173 175 183 183 182 181 179 177 176 183 184 175 170 177 165 155 165 167 139
224 228 248 282 282 277 287 256 189 237 224 221 239 247 215 247 211 298 244 190 205 153 257 190 191 168 178 174 165 106 88 165 117 125 131 185 227 130 210 113 15 124 207 206 98 68 158 163 222 232 233 211 127 151 153 155 160 166 173 170 173 178 181 184 187 192 188 184 180 177 181 182 182 176 173 172 179 180 171 167 169 170 174 158 135 132 141
264 267 261 258 250 233 207 245 203 207 232 237 214 262 224 209 221 189 228 204 285 111 210 82 8 84 359 61 38 35 137 178 118 206 123 172 127 68 150 172 165 178 223 94 102 171 192 204 216 232 148 140 161 153 158 166 173 171 180 183 184 185 183 186 186 188 189 185 180 179 179 181 184 180 171 170 168 164 168 174 172 163 155 147 146 142 144
261 256 250 207 220 228 210 253 201 210 226 226 221 234 200 211 240 134 165 249 171 194 208 140 179 149 180 147 132 142 104 1 160 85 40 215 91 173 161 204 207 229 52 46 198 188 224 236 238 197 135 145 137 156 166 174 176 181 188 192 190 186 187 184 183 177 182 183 185 180 171 174 167 147 149 161 163 168 167 149 147 145 139 134 138 142 142
265 250 237 264 227 240 214 236 168 202 227 230 217 241 233 227 207 185 205 218 179 194 177 169 171 166 139 127 78 342 151 166 169 108 205 142 75 254 131 197 125 54 115 183 141 58 292 243 187 110 150 152 168 169 177 175 179 182 192 190 190 187 182 183 182 175 177 180 181 160 161 158 150 158 163 168 175 163 153 153 149 140 143 138 135 136 148
232 244 235 240 256 223 211 259 264 287 263 229 226 206 229 246 243 246 263 84 127 136 155 168 161 135 132 251 115 166 113 127 89 186 141 85 120 213 189 100 58 121 189 134 170 204 217 215 111 161 163 161 171 168 166 181 185 186 173 187 193 188 187 180 177 177 177 172 165 162 160 155 157 153 159 160 153 155 149 144 151 147 143 140 150 150 152
242 243 238 241 257 258 206 251 245 229 272 291 271 264 241 247 218 216 238 191 180 168 111 83 113 148 144 160 116 53 108 142 125 197 97 90 142 163 39 102 188 190 155 201 213 227 232 172 153 157 159 159 159 171 185 184 180 173 186 190 183 185 181 179 176 176 175 162 160 154 151 153 145 136 128 121 113 122 131 139 143 147 151 153 147 140 143
249 250 229 233 242 251 236 243 310 310 283 266 259 248 252 214 165 236 220 126 135 142 145 136 126 110 58 299 51 119 117 160 98 335 134 160 71 50 198 86 203 230 189 190 218 172 99 138 152 156 163 167 172 178 182 184 183 185 184 179 179 177 179 178 181 174 158 157 160 151 145 141 141 145 145 136 123 115 129 135 134 130 120 121 131 139 142
231 223 234 243 247 243 256 288 319 296 293 290 270 227 201 199 225 191 162 140 150 157 163 144 150 117 139 142 111 136 123 247 108 187 96 56 123 179 159 173 176 250 245 189 156 101 149 147 154 157 165 171 180 176 184 185 182 182 178 175 181 183 178 180 175 161 153 149 145 143 143 142 137 128 123 125 125 121 116 121 126 127 137 141 144 145 146
228 251 222 235 281 267 264 278 265 270 282 299 288 247 208 173 155 182 170 133 143 126 115 67 4 75 123 113 121 114 86 65 134 118 81 149 161 172 93 142 221 195 226 106 117 157 133 138 135 145 168 175 182 179 175 179 179 179 181 168 150 150 160 150 132 133 139 139 139 137 138 137 138 142 142 138 125 118 112 111 120 129 134 141 143 145 148
219 227 236 208 231 262 301 275 281 290 295 295 287 273 242 197 164 167 184 149 146 145 154 160 170 123 133 85 136 118 231 174 78 113 150 157 171 147 187 184 209 119 156 111 125 139 137 138 143 148 162 179 189 188 168 163 154 140 113 106 107 104 96 106 115 112 106 112 121 125 129 129 125 116 109 112 118 115 103 88 99 122 130 132 141 143 144
231 225 230 226 232 253 262 274 272 258 263 278 288 282 261 234 189 156 161 152 160 164 173 139 124 132 110 148 168 112 68 69 145 127 86 263 134 142 184 113 106 59 34 91 83 45 44 16 17 70 136 166 184 131 106 103 103 99 105 108 113 112 111 110 113 115 118 116 118 115 107 109 113 113 116 117 119 123 127 133 128 124 123 125 122 121 123